Regional Weather Roundup
Issued by NWS Huntsville, AL

Home | Current Version | Previous Version | Text Only | Print | Product List | Glossary On
Versions: 1 2 3 4 5 6 7 8 9 10 11 12 13 14 15 16 17 18 19 20 21 22 23 24 25 26 27
000
ASUS44 KHUN 260310
RWRHUN

WEATHER ROUNDUP FOR THE TENNESSEE VALLEY
NATIONAL WEATHER SERVICE HUNTSVILLE AL
1000 PM CDT SAT OCT 25 2014

ALZ001>004-260400-
NORTHWEST ALABAMA

CITY           SKY/WX    TMP DP  RH WIND       PRES   REMARKS
SHOALS AIRPORT PTCLDY    67  61  81 CALM      30.06S
$$

ALZ005>007-016-260400-
NORTH CENTRAL ALABAMA

CITY           SKY/WX    TMP DP  RH WIND       PRES   REMARKS
DECATUR AP     CLEAR     63  60  90 CALM      30.05S
HUNTSVILLE AP  PTCLDY    65  59  81 CALM      30.05R
HUN NWS/UAH      N/A     63  58  84 NE1         N/A
MERIDIANVILLE  PTCLDY    57  54  88 CALM      30.06R
VINEMONT AP    FAIR      60  59  96 CALM      30.09R FOG
$$

ALZ008>010-260400-
NORTHEAST ALABAMA

CITY           SKY/WX    TMP DP  RH WIND       PRES   REMARKS
ALBERTVILLE    CLEAR     61  61 100 SW5       30.06S
FORT PAYNE     CLEAR     54  52  94 CALM      30.06R
SCOTTSBORO AP  PTCLDY    61  59  94 CALM      30.05S
SCOTTSBORO HCN   N/A     61 N/A N/A MISG        N/A
VALLEY HEAD      N/A     55 N/A N/A MISG        N/A
$$

TNZ076-096-097-260400-
SOUTHEASTERN MIDDLE TENNESSEE

CITY           SKY/WX    TMP DP  RH WIND       PRES   REMARKS
TULLAHOMA      CLEAR     55  54  94 CALM      30.06S
WINCHESTER     CLEAR     55  55 100 CALM      30.06R
$$

...SURROUNDING SITES...

CITY           SKY/WX    TMP DP  RH WIND       PRES   REMARKS
ATLANTA        CLEAR     63  50  62 NW6       30.05R
ANNISTON       CLEAR     56  53  90 CALM      30.07R
BIRMINGHAM     CLEAR     61  58  90 CALM      30.09R
CHATTANOOGA    PTCLDY    61  57  87 CALM      30.04S
CORINTH        FAIR      63  61  94 CALM      30.05R FOG
DALTON         CLEAR     54  54 100 CALM      30.05S
GADSDEN        CLEAR     57  52  82 CALM      30.06R
GOLDEN TRNGL   CLEAR     66  59  77 CALM      30.07R
HALEYVILLE     FAIR      60  60 100 CALM      30.09S
JACKSON TN     CLEAR     62  60  93 CALM      30.04S
MEMPHIS        CLEAR     67  62  84 CALM      30.04S
NASHVILLE      CLEAR     63  61  93 CALM      30.03S
OXFORD MS      FAIR      59  59 100 CALM      30.08R FOG
ROME           CLEAR     58  54  86 CALM      30.05R
SAVANNAH       CLEAR     61  61 100 CALM      30.05S
TUPELO         CLEAR     64  61  90 CALM      30.06R
TUSCALOOSA     CLEAR     62  60  93 CALM      30.07R
$$

...GULF COAST WEATHER...

CITY           SKY/WX    TMP DP  RH WIND       PRES   REMARKS
GULFPORT       CLEAR     62  58  86 CALM      30.08R
PASCAGOULA     CLEAR     57  56  96 CALM      30.08S
MOBILE         CLEAR     58  57  97 W3        30.09R
GULF SHORES    CLEAR     58  54  89 CALM      30.07S
PENSACOLA      CLEAR     55  51  86 NW3       30.07R
DESTIN         CLEAR     66  55  67 N5        30.06R
PANAMA CITY    CLEAR     65  53  65 N5        30.05R
APPALACHICOLA  CLEAR     57  50  77 NW3       30.04R
$$




USA.gov is the U.S. government's official web portal to all federal, state and local government web resources and services.